Location: La Trinit�
(48.1620°N, 3.4512°W)
Time: 08:26:12
(UTC+00:00)

Meteor 1-5 Rocket - Pass Details

Date: 08 May 2021
Orbit: 788 x 916 km, 81.2° (Epoch: 12 June)

Event Time Altitude Azimuth Distance (km) Brightness Sun altitude
Rises 21:31:23 0° 350° (N) 3,374 8.4 -15.5°
Reaches altitude 10° 21:33:51 10° 353° (N) 2,420 7.5 -15.8°
Maximum altitude 21:39:16 67° 76° (ENE) 871 4.1 -16.3°
Enters shadow 21:42:09 27° 152° (SSE) 1,477 4.9 -16.6°
